{"data":{"norad_id":43786,"epoch":"2026-09-18T09:31:41.409120Z","epoch_age_seconds":196032,"freshness":"STALE","line1":"1 43786U 18099AE  26261.39700705  .00004670  00000+0  21918-3 0  9993","line2":"2 43786  97.3931 311.0652 0012942  33.8772 326.3287 15.20055674427063","mean_motion":15.20055674,"eccentricity":0.0012942,"inclination_deg":97.3931,"raan_deg":311.0652,"arg_perigee_deg":33.8772,"mean_anomaly_deg":326.3287,"bstar":0.00021918,"rev_number":42706,"period_min":94.733372246206,"perigee_km":496.76349672407,"apogee_km":514.58154929342,"semimajor_km":6883.8095230087,"source":"CELESTRAK","updated_at":"2026-09-20T09:00:45.235392Z"}}